Weather reports worldwide

Advertisment
Boulmer, United Kingdom (3240): temperature & dewpoint: 10.01.2019 17:00:00 - 16.01.2019 17:00:00 (GMT)Boulmer, United Kingdom (3240): wind speed & gusts: 10.01.2019 17:00:00 - 16.01.2019 17:00:00 (GMT)Boulmer, United Kingdom (3240): wind direction: 10.01.2019 17:00:00 - 16.01.2019 17:00:00 (GMT)Boulmer, United Kingdom (3240): reduced air pressure: 10.01.2019 17:00:00 - 16.01.2019 17:00:00 (GMT)Boulmer, United Kingdom (3240): visibility: 10.01.2019 17:00:00 - 16.01.2019 17:00:00 (GMT)Boulmer, United Kingdom (3240): sunshine duration: 10.01.2019 17:00:00 - 16.01.2019 17:00:00 (GMT)Boulmer, United Kingdom (3240): precipitation: 10.01.2019 17:00:00 - 16.01.2019 17:00:00 (GMT)
Date & Time tt [°C] td [°C] ff [km/h] ff [kn] fx [km/h] fx [kn] dd ppp [hPa] vv [km] sd [min] rr [mm]
16.01.2019 17:00:00 5,1 0,1 15 8 - - WSW 995,3 - - 0,0
16.01.2019 16:00:00 5,7 0,3 5 3 - - NNE 995,7 - - 0,0
16.01.2019 15:00:00 6,5 0,3 31 17 50 27 W 995,1 - - 0,0
16.01.2019 14:00:00 7,1 0,4 29 16 59 32 WSW 994,8 - - 0,0
16.01.2019 13:00:00 7,1 1,0 22 12 - - WSW 995,4 - - 0,0
16.01.2019 12:00:00 6,7 0,9 26 14 46 25 WSW 995,6 - - 0,0
16.01.2019 11:00:00 7,7 2,2 24 13 - - WSW 995,8 - - 0,0
16.01.2019 10:00:00 6,5 3,5 16 9 - - SW 995,9 - - 0,0
16.01.2019 09:00:00 7,2 4,0 18 10 - - SW 995,9 - - 0,0
16.01.2019 08:00:00 8,3 4,6 26 14 - - W 995,6 - - 0,0
16.01.2019 07:00:00 8,6 6,7 22 12 - - SW 995,2 - - 0,0
16.01.2019 06:00:00 9,3 5,6 29 16 54 29 SSW 996,0 - - 0,0
16.01.2019 05:00:00 9,2 5,5 39 21 57 31 WSW 996,3 - - 0,0
16.01.2019 04:00:00 9,0 5,5 26 14 46 25 SSW 997,5 - - 0,0
16.01.2019 03:00:00 9,0 5,6 31 17 54 29 SSW 998,3 10 0 0,0
16.01.2019 02:00:00 9,1 5,6 34 18 52 28 SSW 998,9 40 0 0,0
16.01.2019 01:00:00 9,4 5,7 28 15 48 26 SW 999,9 10 0 0,0
16.01.2019 00:00:00 9,3 6,0 16 9 - - SSW 1001,2 10 - 0,0
15.01.2019 23:00:00 9,1 6,3 18 10 - - SW 1002,3 10 0 0,0
15.01.2019 22:00:00 8,7 5,7 - - - - - 1003,0 10 0 0,0
15.01.2019 21:00:00 9,1 6,1 0 0 - - N 1004,1 10 0 0,0
15.01.2019 20:00:00 8,8 5,9 24 13 46 25 SW 1004,9 40 0 0,0
15.01.2019 19:00:00 8,6 5,7 22 12 - - SW 1006,0 40 0 0,0
15.01.2019 18:00:00 8,3 4,9 28 15 - - SW 1006,4 10 0 0,0
15.01.2019 17:00:00 8,8 4,6 24 13 54 29 SW 1007,0 40 0 0,0
15.01.2019 16:00:00 9,1 5,1 31 17 55 30 SW 1007,2 10 6 0,0
15.01.2019 15:00:00 10,2 5,2 34 18 48 26 WSW 1007,4 10 60 0,0
15.01.2019 14:00:00 10,2 5,6 35 19 65 35 WSW 1008,1 10 60 0,0
15.01.2019 13:00:00 10,4 5,8 41 22 63 34 WSW 1008,1 30 18 0,0
15.01.2019 12:00:00 9,8 5,6 34 18 59 32 WSW 1008,8 10 0 0,0
15.01.2019 11:00:00 9,8 5,8 42 23 63 34 WSW 1009,3 30 0 0,0
15.01.2019 10:00:00 9,7 6,4 37 20 55 30 WSW 1009,8 10 0 0,0
15.01.2019 09:00:00 9,5 6,4 29 16 - - WSW 1009,9 10 0 0,0
15.01.2019 08:00:00 9,7 6,4 31 17 50 27 WSW 1009,4 10 0 0,0
15.01.2019 07:00:00 9,0 6,2 34 18 52 28 WSW 1009,2 35 0 0,0
15.01.2019 06:00:00 9,3 5,8 37 20 59 32 WSW 1009,6 35 0 0,0
15.01.2019 05:00:00 8,9 5,4 42 23 65 35 WSW 1009,8 35 0 0,0
15.01.2019 04:00:00 8,5 5,4 22 12 - - WSW 1011,1 35 0 0,0
15.01.2019 03:00:00 8,2 5,6 24 13 - - SW 1011,7 10 0 0,0
15.01.2019 02:00:00 8,2 5,6 24 13 - - SW 1012,8 35 0 0,0
15.01.2019 01:00:00 7,9 5,6 21 11 - - SW 1013,5 10 0 0,0
15.01.2019 00:00:00 7,0 4,8 18 10 - - SW 1014,2 10 - 0,0
14.01.2019 23:00:00 6,9 4,7 22 12 - - SW 1015,0 10 0 0,0
14.01.2019 22:00:00 6,3 4,4 26 14 - - SW 1015,3 28 0 0,0
14.01.2019 21:00:00 5,3 3,5 24 13 - - SW 1015,9 29 0 0,0
14.01.2019 20:00:00 4,8 3,1 16 9 - - SW 1016,5 28 0 0,0
14.01.2019 19:00:00 5,1 3,0 15 8 - - SW 1017,1 10 0 0,0
14.01.2019 18:00:00 4,5 2,5 13 7 - - SW 1017,3 30 0 0,0
14.01.2019 17:00:00 3,9 1,8 13 7 - - SW 1017,4 30 0 0,0
14.01.2019 16:00:00 4,5 2,4 13 7 - - SW 1017,8 10 18 0,0
14.01.2019 15:00:00 5,4 3,0 11 6 - - S 1018,2 10 60 0,0
14.01.2019 14:00:00 6,4 2,3 8 4 - - S 1018,6 40 60 0,0
14.01.2019 13:00:00 6,4 2,3 5 3 - - SW 1019,1 10 60 0,0
14.01.2019 12:00:00 5,4 2,3 13 7 - - W 1019,2 10 60 0,0
14.01.2019 11:00:00 4,8 2,7 9 5 - - W 1019,3 10 60 0,0
14.01.2019 10:00:00 3,7 2,4 9 5 - - W 1019,2 10 24 0,0
14.01.2019 09:00:00 3,2 2,2 11 6 - - WNW 1018,9 10 0 0,0
14.01.2019 08:00:00 3,2 2,1 13 7 - - WNW 1017,6 10 0 0,0
14.01.2019 07:00:00 3,7 2,6 13 7 - - WNW 1017,0 10 0 0,8
14.01.2019 06:00:00 4,2 3,5 11 6 - - NW 1016,4 7 0 0,8
14.01.2019 05:00:00 4,5 3,7 11 6 - - W 1016,0 7 0 0,2
14.01.2019 04:00:00 4,8 4,0 9 5 - - NNW 1015,0 7 0 2,0
14.01.2019 03:00:00 5,1 4,0 13 7 - - NNW 1014,0 11 0 0,2
14.01.2019 02:00:00 5,9 4,2 18 10 - - WNW 1012,5 10 0 0,0
14.01.2019 01:00:00 6,8 2,0 24 13 48 26 WNW 1010,4 45 0 0,0
14.01.2019 00:00:00 7,0 2,4 35 19 52 28 WNW 1009,4 10 - 0,0
13.01.2019 23:00:00 7,1 2,4 34 18 57 31 WNW 1008,4 10 0 0,0
13.01.2019 22:00:00 7,2 2,1 35 19 59 32 WNW 1007,5 10 0 0,0
13.01.2019 21:00:00 7,0 1,9 37 20 61 33 WNW 1006,8 10 0 0,0
13.01.2019 20:00:00 7,4 2,1 42 23 65 35 WNW 1005,8 10 0 0,0
13.01.2019 19:00:00 7,5 2,0 41 22 65 35 W 1005,2 10 0 0,0
13.01.2019 18:00:00 7,8 1,9 39 21 67 36 W 1004,5 10 0 0,0
13.01.2019 17:00:00 8,3 2,2 35 19 63 34 WNW 1004,1 10 0 0,0
13.01.2019 16:00:00 8,7 1,9 46 25 68 37 WNW 1003,5 10 30 0,0
13.01.2019 15:00:00 9,6 2,8 42 23 72 39 W 1002,6 10 60 0,0
13.01.2019 14:00:00 10,0 2,5 50 27 76 41 W 1003,0 35 60 0,0
13.01.2019 13:00:00 10,5 2,7 48 26 80 43 W 1002,8 10 60 0,0
13.01.2019 12:00:00 11,1 3,0 50 27 81 44 WNW 1002,8 30 30 0,0
13.01.2019 11:00:00 11,2 4,8 52 28 76 41 WNW 1003,1 40 18 0,0
13.01.2019 10:00:00 11,8 5,1 46 25 76 41 W 1002,9 10 30 0,0
13.01.2019 09:00:00 11,5 6,1 31 17 48 26 W 1002,9 10 0 0,0
13.01.2019 08:00:00 11,4 6,8 29 16 52 28 WSW 1003,5 10 0 0,0
13.01.2019 07:00:00 11,2 7,4 24 13 48 26 WSW 1004,6 10 0 0,0
13.01.2019 06:00:00 11,3 7,3 35 19 61 33 WSW 1005,2 10 0 0,0
13.01.2019 05:00:00 10,8 7,5 39 21 55 30 WSW 1005,6 10 0 0,0
13.01.2019 04:00:00 11,0 7,6 35 19 74 40 W 1006,8 10 0 0,0
13.01.2019 03:00:00 10,9 7,2 50 27 81 44 W 1006,1 40 0 0,0
13.01.2019 02:00:00 11,3 7,2 55 30 80 43 W 1005,4 10 0 0,0
13.01.2019 01:00:00 11,8 7,4 54 29 81 44 W 1006,8 10 0 0,0
13.01.2019 00:00:00 11,8 7,5 42 23 65 35 W 1008,5 10 - 0,0
12.01.2019 23:00:00 11,8 7,8 44 24 63 34 W 1008,9 10 0 0,0
12.01.2019 22:00:00 11,9 7,9 41 22 59 32 W 1009,2 10 0 0,0
12.01.2019 21:00:00 12,2 7,8 39 21 54 29 W 1009,8 10 0 0,0
12.01.2019 20:00:00 11,7 7,6 35 19 48 26 WSW 1010,4 35 0 0,0
12.01.2019 19:00:00 11,3 7,4 18 10 - - WSW 1011,2 10 0 0,0
12.01.2019 18:00:00 11,0 7,2 15 8 - - W 1011,2 45 0 0,0
12.01.2019 17:00:00 10,0 6,6 18 10 - - WSW 1011,5 45 0 0,0
12.01.2019 16:00:00 10,0 5,9 29 16 54 29 W 1011,6 10 6 0,0
12.01.2019 15:00:00 10,1 5,4 37 20 55 30 W 1012,0 45 0 0,0
12.01.2019 14:00:00 10,0 4,4 39 21 54 29 W 1012,2 40 0 0,0
12.01.2019 13:00:00 9,7 4,2 29 16 48 26 WSW 1013,0 40 0 0,0
12.01.2019 12:00:00 9,6 4,1 31 17 46 25 W 1013,7 10 0 0,0
12.01.2019 11:00:00 9,2 4,0 29 16 48 26 W 1014,4 10 0 0,0
12.01.2019 10:00:00 8,7 4,0 34 18 52 28 WSW 1014,6 10 0 0,0
12.01.2019 09:00:00 8,6 3,5 28 15 46 25 W 1014,8 10 0 0,0
12.01.2019 08:00:00 8,5 3,8 31 17 52 28 W 1014,9 40 0 0,0
12.01.2019 07:00:00 8,4 4,0 28 15 48 26 W 1014,9 45 0 0,0
12.01.2019 06:00:00 8,6 4,2 29 16 - - W 1015,5 10 0 0,0
12.01.2019 05:00:00 9,0 4,6 26 14 - - W 1015,9 40 0 0,0
12.01.2019 04:00:00 8,8 6,9 15 8 - - W 1016,7 45 0 0,0
12.01.2019 03:00:00 8,6 6,7 18 10 - - SSW 1017,3 40 0 0,0
12.01.2019 02:00:00 8,4 6,2 29 16 - - SW 1018,3 10 0 0,0
12.01.2019 01:00:00 7,9 5,3 28 15 46 25 SW 1019,4 45 0 0,0
12.01.2019 00:00:00 8,6 5,1 22 12 65 35 WSW 1020,4 10 - 0,0
11.01.2019 23:00:00 8,4 5,0 21 11 - - WSW 1021,6 10 0 0,0
11.01.2019 22:00:00 7,9 5,4 13 7 - - SW 1022,6 40 0 0,0
11.01.2019 21:00:00 7,9 5,6 15 8 - - SSW 1023,8 10 0 0,0
11.01.2019 20:00:00 7,7 5,7 15 8 - - SSW 1024,8 30 0 0,0
11.01.2019 19:00:00 7,8 5,0 16 9 - - SW 1025,7 35 0 0,0
11.01.2019 18:00:00 8,0 4,5 21 11 - - SW 1026,1 35 0 0,0
11.01.2019 17:00:00 7,5 3,9 9 5 - - SW 1026,6 10 0 0,0
11.01.2019 16:00:00 8,0 3,7 11 6 - - SW 1026,9 35 0 0,0
11.01.2019 15:00:00 8,8 2,8 11 6 - - W 1027,5 40 0 0,0
11.01.2019 14:00:00 9,2 2,5 18 10 - - W 1027,8 40 30 0,0
11.01.2019 13:00:00 8,7 4,2 15 8 - - WSW 1028,4 10 6 0,0
11.01.2019 12:00:00 8,8 3,7 15 8 - - W 1029,2 10 0 0,0
11.01.2019 11:00:00 8,2 4,0 13 7 - - W 1029,8 30 0 0,0
11.01.2019 10:00:00 8,1 4,0 18 10 - - W 1029,5 10 0 0,0
11.01.2019 09:00:00 7,9 3,6 13 7 - - W 1029,5 10 0 0,0
11.01.2019 08:00:00 8,0 3,9 15 8 - - W 1029,3 10 0 0,0
11.01.2019 07:00:00 8,0 3,8 16 9 - - W 1029,1 35 0 0,0
11.01.2019 06:00:00 8,1 3,9 15 8 - - W 1029,0 40 0 0,0
11.01.2019 05:00:00 7,8 3,9 15 8 - - W 1029,0 35 0 0,0
11.01.2019 04:00:00 7,6 3,6 15 8 - - W 1029,1 10 0 0,0
11.01.2019 03:00:00 7,9 3,2 15 8 - - W 1029,2 10 0 0,0
11.01.2019 02:00:00 7,8 3,2 15 8 - - W 1029,3 30 0 0,0
11.01.2019 01:00:00 7,6 3,0 16 9 - - W 1029,2 30 0 0,0
11.01.2019 00:00:00 7,7 3,1 21 11 - - W 1029,3 10 - 0,0
10.01.2019 23:00:00 7,8 3,3 16 9 - - W 1029,5 10 0 0,0
10.01.2019 22:00:00 8,0 3,7 18 10 - - W 1029,4 10 0 0,0
10.01.2019 21:00:00 8,4 4,3 24 13 - - WNW 1029,3 10 0 0,0
10.01.2019 20:00:00 8,4 4,1 22 12 - - W 1028,7 30 0 0,0
10.01.2019 19:00:00 8,9 4,1 22 12 - - WNW 1028,5 30 0 0,0
10.01.2019 18:00:00 9,5 3,7 24 13 - - WNW 1028,4 10 0 0,0
10.01.2019 17:00:00 9,6 4,0 22 12 - - WNW 1028,4 22 0 0,0

tt = temperature
td = dewpoint
ff = wind speed
fx = gusts
dd = wind direction
ppp = reduced air pressure
vv = visibility
sd = sunshine duration
rr = precipitation

Next stations